Regional Weather Roundup
Issued by NWS Grand Forks, ND

Home | Current Version | Previous Version | Text Only | Print | Product List | Glossary On
Versions: 1 2 3 4 5 6 7 8 9 10 11 12 13 14 15 16 17 18 19 20 21 22 23 24 25 26 27 28 29 30 31 32 33 34 35 36 37 38 39 40 41 42 43 44 45 46 47 48 49 50
000
ASUS43 KFGF 211531
RWRFGF
PRAIRIE TO PINES  WEATHER ROUNDUP
NATIONAL WEATHER SERVICE EASTERN NORTH DAKOTA/GRAND FORKS ND
900 AM CST WED FEB 21 2018

 **SATELLITE DATA USED TO AUGMENT SKY COVER AT AUTOMATED STATIONS**
 *****  WEATHER ACROSS EASTERN NORTH DAKOTA  *****

CITY           SKY/WX    TMP DP  RH WIND       PRES   REMARKS
GRAND FORKS    FAIR      -1  -9  68 W7        30.43R WCI -14
GRAND FRKS AFB SUNNY     14  -8  37 W3        30.48R
GRAND FRKS NWS   N/A     -1  -7  75 W7        30.41R WCI -14
DEVILS LAKE    FAIR      -7 -14  71 SW13      30.37R WCI -27
FARGO          FAIR      -2 -10  69 SW10      30.48R WCI -19
WAHPETON ARPT  FAIR      -4 -13  65 CALM      30.52R
$$

 ***** WEATHER ACROSS CENTRAL AND WESTERN NORTH DAKOTA  *****

CITY           SKY/WX    TMP DP  RH WIND       PRES   REMARKS
BISMARCK       FAIR      -6 -13  71 SE3       30.40R
MINOT          FAIR       0 -10  63 SW21G28   30.31R WCI -22
JAMESTOWN      FAIR      -1 -11  62 W7        30.38F WCI -14
MINOT AFB      FAIR      -2 -12  64 W15       30.30R WCI -22
GARRISON         N/A     -5 -13  68 W12       30.32S WCI -23
WILLISTON      FAIR     -10 -17  71 SW6       30.33R WCI -23
DICKINSON      FAIR      -2 -13  59 W12       30.26S WCI -20
HETTINGER      FAIR     -11 -17  75 NW3       30.31S
$$

 *****  OTHER AIRPORT OBSERVATIONS IN OUR AREA  *****

CITY           SKY/WX    TMP DP  RH WIND       PRES   REMARKS
WALHALLA       FAIR       3  -8  60 W8        30.37R WCI -10
GRAFTON AIRPOR FAIR       0  -8  71 SW9       30.43R WCI -16
VALLEY CITY AR FAIR      -2 -11  65 W8        30.42S WCI -17
CANDO          FAIR      -2 -11  65 W8        30.36S WCI -17
CAVALIER APRT    N/A      1  -8  66 W5        30.38R WCI  -8
GWINNER          N/A     -6 -13  71 SW15      30.47R WCI -27
SHEYENNE NWR     N/A     -6 -15  65 SW8       29.95S WCI -21
ROLLA          FAIR      -4 -11  71 SW8       30.27F WCI -19
 ***** THE ABOVE OBSERVATIONS ARE NON NWS ARE NOT QUALITY
       CONTROLLED AND MAY MIS-REPORT RAIN FOR SNOW...
$$

  *****  WEATHER ACROSS NORTHERN MINNESOTA  *****

CITY           SKY/WX    TMP DP  RH WIND       PRES   REMARKS
FLAG ISLAND    FAIR       1  -6  71 SW10G16   30.32R WCI -14
WARROAD        FAIR       0  -6  78 SW9       30.35R WCI -16
ROSEAU         FAIR       0  -8  71 SW9       30.37R WCI -16
HALLOCK        FAIR      -4  -9  77 SW9       30.39R WCI -20
THF RVR FALLS  FAIR      -4 -10  75 S8        30.41R WCI -19
BAUDETTE       FAIR      -2  -7  79 SW7       30.34R WCI -15
WASKISH        FAIR       1  -6  71 SW14G20   30.39R WCI -17
CROOKSTON      FAIR      -4  -9  77 S12       30.46R WCI -22
STEPHEN NDAWN    N/A     -2  -9  71 SW9         N/A  WCI -18
GREENBUSH NDAW   N/A     -2  -8  78 SW12        N/A  WCI -20
$$
  *****  WEATHER ACROSS CENTRAL AND WEST MINNESOTA  *****

CITY           SKY/WX    TMP DP  RH WIND       PRES   REMARKS
FOSSTON        FAIR      -4  -9  77 S10       30.41S WCI -21
BEMIDJI        FAIR       2  -5  72 W7        30.39R WCI -11
PARK RAPIDS    FAIR      -4  -4 100 SW6       30.41R WCI -16
ELBOW LAKE     FAIR      -5 -10  80 S6        30.50R WCI -18
WADENA         FAIR      -2  -8  78 W8        30.45R WCI -17
DETROIT LAKES  FAIR       0  -8  71 SW5       30.44R WCI -10
MOORHEAD       FAIR      -6 -15  65 S8        30.50R WCI -21
FERGUS FALLS   FAIR      -6 -11  77 S3        30.51S
MORRIS MN      FAIR       0  -8  71 S8        30.51R WCI -15
STAPLES        FAIR       0  -8  71 W5        30.46S WCI -10
$$
  *****  WEATHER ELSEWHERE ACROSS MINNESOTA  *****

CITY           SKY/WX    TMP DP  RH WIND       PRES   REMARKS
DULUTH         FAIR       3  -2  79 W10       30.39S WCI -12
INTRNTL FALLS  FAIR      -1  -5  82 SW6       30.36R WCI -13
ELY            FAIR       1  -6  71 SW7       30.36F WCI -11
CLOQUET        FAIR       3  -4  72 SW6       30.43R WCI  -8
WHEATON        FAIR      -2 -11  65 S7        30.52R WCI -16
BRAINERD       FAIR      -1  -8  72 SW8       30.46R WCI -15
HIBBING        FAIR      -7  -9  91 S6        30.40R FOG     WCI -20
ALEXANDRIA     FAIR      -4  -9  79 SW7       30.47R WCI -18
SAINT CLOUD    FAIR       0  -5  79 W5        30.52R WCI -10
MINNEAPOLIS    FAIR       5   0  79 SW8       30.59R WCI  -8
$$

  *****  WEATHER ACROSS SOUTH DAKOTA  *****

CITY           SKY/WX    TMP DP  RH WIND       PRES   REMARKS
SIOUX FALLS    FAIR       0  -6  76 SW3       30.55R
BROOKINGS      FAIR      -4 -10  75 S6        30.51  WCI -16
WATERTOWN      FAIR      -6 -10  83 S3        30.47R
HURON          FAIR       0  -8  69 SE6       30.54R WCI -12
SISSETON         N/A      7  -7  52 W8        30.47R WCI  -6
ABERDEEN       FAIR     -12 -18  74 S7        30.50R WCI -27
MITCHELL       FAIR       0  -8  69 S6        30.56R WCI -12
PIERRE         FAIR     -11 -13  91 CALM      30.45R
MOBRIDGE       FAIR      -6 -14  68 CALM      30.40R
RAPID CITY     FLURRIES -15 -18  86 SE3       30.28R
$$

  *****  SOME WEATHER IN NEARBY STATES *****

CITY           SKY/WX    TMP DP  RH WIND       PRES   REMARKS
GLASGOW MT     FAIR     -14 -19  79 E8        30.24F WCI -31
GREAT FALLS MT FAIR      -9 -13  83 S7        30.06F WCI -24
CHEYENNE WY    FAIR       6   3  87 S3        30.13R
SCOTTSBLUFF NE FAIR      -5 -10  79 N3        30.29R
OMAHA NE       PTSUNNY   11   3  70 N3        30.65R
DES MOINES IA  CLOUDY    14   6  70 N9        30.63R WCI   2
DAVENPORT IA   FAIR      22  14  71 N13       30.59R WCI  10
CHICAGO IL     CLOUDY    28  18  66 NW12      30.49R WCI  18
EAU CLAIRE WI  FAIR       5   0  79 W7        30.56R WCI  -7
LA CROSSE WI   FAIR      13   6  74 CALM      30.62R
$$

  *****  SOME NATIONAL WEATHER *****

CITY           SKY/WX    TMP DP  RH WIND       PRES   REMARKS
LA GUARDIA NY  PTSUNNY   64  58  80 SW15      30.29S
RALEIGH NC     PTSUNNY   69  65  86 SW13      30.47F
ATLANTA GA     DRIZZLE   68  67  96 S8        30.42S FOG
NEW ORLEANS LA PTSUNNY   76  73  91 SE10      30.23R
OKLAHOMA CITY  CLOUDY    21  17  84 N17G25    30.39S WCI   7
ALBUQUERQUE NM PTSUNNY   33  18  53 NE10      30.13R WCI  25
SALT LAKE CITY MOCLDY    18   8  65 SE6       30.16R WCI  10
LOS ANGELES CA MOCLDY    47  23  38 NE7       30.13R
BOISE ID       CLOUDY    24   5  44 SE10      30.14R WCI  14
SEATTLE WA     FAIR      27  13  55 E8        30.31R WCI  19
$$

*** WEATHER ACROSS MANITOBA...SASKATCHEWAN AND ONTARIO ***
                ***ONTARIO***

CITY           SKY/WX    TMP DP  RH WIND       PRES   REMARKS
GERALDTON      NOT AVBL
THUNDER BAY    NOT AVBL
SIOUX LOOKOUT  NOT AVBL
TORONTO        NOT AVBL
BIG TROUT LK   NOT AVBL
PICKLE LAKE    NOT AVBL
DRYDEN         NOT AVBL
KENORA         NOT AVBL
$$
                *** MANITOBA***

CITY           SKY/WX    TMP DP  RH WIND       PRES   REMARKS
BRANDON        NOT AVBL
DAUPHIN        NOT AVBL
ISLAND LAKE    NOT AVBL
PILOT MOUND    NOT AVBL
THE PAS        NOT AVBL
THOMPSON       NOT AVBL
WINNIPEG       NOT AVBL
$$
                ***SASKATCHEWAN***

CITY           SKY/WX    TMP DP  RH WIND       PRES   REMARKS
ESTEVAN        NOT AVBL
KINDERSLEY     NOT AVBL
LLOYDMINSTER   NOT AVBL
PRINCE ALBERT  NOT AVBL
REGINA         NOT AVBL
YORKTON        NOT AVBL
N. BATTLEFORD  NOT AVBL
LA RONGE       NOT AVBL
SASKATOON      NOT AVBL
SWIFT CURRENT  NOT AVBL
$$
NOTE: THESE ARE AUTOMATED STATIONS WITH LIMITED QUALITY CONTROL
      "FAIR" INDICATES FEW OR NO CLOUDS BELOW 12,000 FEET WITH NO
      SIGNIFICANT WEATHER AND/OR OBSTRUCTIONS TO VISIBILITY.
      SKY/WX - SKY CONDITION AND SIGNIFICANT WEATHER.
      TMP - AIR TEMPERATURE.    DP   - DEWPOINT TEMPERATURE.
      RH  - RELATIVE HUMIDITY.  PRES - PRESSURE.
      HX  - HEAT INDEX.         WCI  - WIND CHILL INDEX.
$



USA.gov is the U.S. government's official web portal to all federal, state and local government web resources and services.